Location: Caltech
(34.1382°N, 118.1253°W)
Time: 07:19:54
(UTC-07:00)

SO-67 - Visible Passes

Search period start: 31 October 2014 00:00
Search period end: 09 November 2014 23:00
Orbit: 458 x 461 km, 97.2° (Epoch: 31 October)

Date Brightness Start Highest point End Pass type
(mag) Time Alt. Az. Time Alt. Az. Time Alt. Az.
31 Oct ? 19:29:38 10° S 19:33:00 56° W 19:36:23 10° NNW visible
01 Nov ? 18:57:45 10° SSE 19:01:00 43° ENE 19:04:18 10° N visible
02 Nov ? 17:27:00 10° ESE 17:29:08 16° ENE 17:31:17 10° NNE visible
02 Nov ? 18:59:15 10° SSW 19:01:54 21° W 19:04:34 10° NW visible
03 Nov ? 18:26:21 10° S 18:29:44 63° W 18:33:09 10° NNW visible
04 Nov ? 17:54:28 10° SE 17:57:41 39° ENE 18:00:54 10° N visible
05 Nov ? 17:23:49 10° ESE 17:25:44 14° ENE 17:27:40 10° NE visible
05 Nov ? 18:55:40 10° SSW 18:58:27 23° W 19:01:15 10° NW visible
06 Nov ? 18:22:48 10° S 18:26:13 72° W 18:29:39 10° NNW visible
07 Nov ? 17:50:57 10° SE 17:54:05 34° ENE 17:57:14 10° N visible
08 Nov ? 17:20:26 10° E 17:22:04 13° ENE 17:23:42 10° NE visible
08 Nov ? 18:51:49 10° SSW 18:54:43 26° W 18:57:39 10° NW visible
09 Nov ? 18:19:00 10° S 18:22:25 83° WSW 18:25:52 10° NNW visible
